Regional Weather Roundup
Issued by NWS

Home | Current Version | Previous Version | Graphics & Text | Print | Product List | Glossary On
Versions: 1 2 3 4 5 6 7 8 9 10 11 12 13 14 15 16 17 18 19 20 21 22 23 24 25 26 27 28 29 30 31 32 33 34 35 36 37 38 39 40 41 42 43 44 45 46 47 48 49 50
455
ASUS45 KCYS 272010
RWRWY

WYOMING REGIONAL WEATHER ROUNDUP
NATIONAL WEATHER SERVICE CHEYENNE WY
200 PM MDT SAT MAY 27 2017

NOTE:  "FAIR" INDICATES FEW OR NO CLOUDS BELOW 12,000 FEET
WITH NO SIGNIFICANT WEATHER AND/OR OBSTRUCTIONS TO VISIBILITY.

WYZ001-272100-
YELLOWSTONE NATIONAL PARK

CITY           SKY/WX    TMP DP  RH WIND       PRES   REMARKS
LK YELLOWSTONE   N/A     46  35  65 VRB7      30.31S
W YELLOWSTONE  NOT AVBL

$$
WYZ002>013-054>058-071-098>099-272100-
NORTHERN WYOMING

CITY           SKY/WX    TMP DP  RH WIND       PRES   REMARKS
JACKSON        PTSUNNY   54  30  40 CALM      30.27R
CODY           FAIR      63  27  25 CALM      30.18S
GREYBULL       FAIR      69  27  20 MISG      30.12F
WORLAND        FAIR      66  32  28 N14       30.14F
SHERIDAN       PTSUNNY   66  34  30 NW17G24   30.10S
BUFFALO        PTSUNNY   63  30  28 N17G33    30.13S
GILLETTE       CLOUDY    62  37  39 NW15      30.08S
HULETT         MOCLDY    63  32  31 W14G21    30.07S
NEWCASTLE      FAIR      63  32  31 NW15G22   30.07F

$$
WYZ014>020-022>026-101>103-272100-
CENTRAL WYOMING

CITY           SKY/WX    TMP DP  RH WIND       PRES   REMARKS
BIG PINEY      PTSUNNY   56  25  30 N16G22    30.25S
PINEDALE       MOCLDY    55  23  28 NW13G22   30.25S
DUBOIS         MOCLDY    52  23  32 NW13      30.24S
LANDER         PTSUNNY   60  31  33 VRB7      30.19S
RIVERTON       FAIR      60  28  29 VRB6      30.19S
CASPER         PTSUNNY   58  33  39 SW6       30.17F
DOUGLAS        PTSUNNY   58  35  42 W9        30.15R

$$
WYZ021-027>030-104>119-272100-
SOUTHERN WYOMING

CITY           SKY/WX    TMP DP  RH WIND       PRES   REMARKS
EVANSTON       FAIR      57  29  34 N8        30.27S
KEMMERER         N/A     54  30  40 W10       30.27R
FORT BRIDGER   FAIR      57  26  30 N3        30.29S
ROCK SPRINGS   FAIR      55  25  31 MISG      30.24S
DIXON            N/A     57  31  37 NW9       30.23S
RAWLINS        FAIR      56  22  26 NW13G24   30.21F
SARATOGA       FAIR      54  32  43 NW14G23   30.22S
LARAMIE        LGT RAIN  45  33  63 NW16      30.19R
CHEYENNE       FAIR      50  37  61 N21G28    30.15R
TORRINGTON     PTSUNNY   60  41  49 N8        30.09F
PINE BLUFFS    CLOUDY    52  39  62 NW26G36   30.13R

$$




USA.gov is the U.S. government's official web portal to all federal, state and local government web resources and services.